TimeCST,TemperatureF,Dew PointF,Humidity,Sea Level PressureIn,VisibilityMPH,Wind Direction,Wind SpeedMPH,Gust SpeedMPH,PrecipitationIn,Events,Conditions,WindDirDegrees,DateUTC
12:15 AM,54.7,52.7,93,29.86,7.0,South,13.8,-,N/A,,Drizzle,170,2013-11-06 06:15:00
12:35 AM,54.9,52.9,93,29.85,10.0,South,13.8,-,N/A,Rain,Light Rain,170,2013-11-06 06:35:00
12:55 AM,55.0,53.1,93,29.85,5.0,South,15.0,19.6,0.01,,Drizzle,180,2013-11-06 06:55:00
1:15 AM,54.9,52.9,93,29.84,7.0,South,15.0,-,N/A,Rain,Light Rain,180,2013-11-06 07:15:00
1:35 AM,54.9,52.9,93,29.83,7.0,South,15.0,19.6,N/A,Rain,Light Rain,180,2013-11-06 07:35:00
1:55 AM,54.7,52.9,94,29.82,3.0,South,15.0,-,N/A,,Drizzle,180,2013-11-06 07:55:00
2:15 AM,54.7,53.1,94,29.82,4.0,South,13.8,20.7,N/A,Rain,Rain,180,2013-11-06 08:15:00
2:35 AM,54.9,53.1,94,29.81,5.0,South,15.0,-,0.01,Rain,Light Rain,180,2013-11-06 08:35:00
2:55 AM,55.0,53.2,94,29.79,7.0,South,12.7,-,0.01,Rain,Rain,180,2013-11-06 08:55:00
3:15 AM,55.0,53.2,94,29.79,5.0,South,10.4,-,0.01,Rain,Light Rain,190,2013-11-06 09:15:00
3:35 AM,55.4,53.6,94,29.79,7.0,South,10.4,-,0.02,Rain,Light Rain,190,2013-11-06 09:35:00
3:55 AM,55.4,53.8,94,29.78,5.0,South,12.7,-,0.07,Rain,Rain,190,2013-11-06 09:55:00
4:15 AM,55.6,54.0,94,29.78,7.0,South,11.5,-,0.01,Rain,Light Rain,190,2013-11-06 10:15:00
4:35 AM,55.9,54.5,95,29.77,7.0,South,11.5,-,0.02,Rain,Light Rain,180,2013-11-06 10:35:00
4:55 AM,55.9,54.3,94,29.76,7.0,South,13.8,18.4,0.05,Rain,Light Rain,170,2013-11-06 10:55:00
5:15 AM,55.9,54.5,95,29.77,10.0,South,15.0,-,0.01,Rain,Light Rain,180,2013-11-06 11:15:00
5:35 AM,55.9,54.5,95,29.77,7.0,South,11.5,-,0.04,Rain,Rain,190,2013-11-06 11:35:00
5:55 AM,56.3,54.5,94,29.73,10.0,SSE,12.7,19.6,0.06,Rain,Light Rain,160,2013-11-06 11:55:00
6:15 AM,56.3,54.5,94,29.75,10.0,South,11.5,-,N/A,,Drizzle,190,2013-11-06 12:15:00
6:35 AM,55.6,53.8,94,29.76,10.0,WSW,6.9,19.6,N/A,Rain,Light Rain,250,2013-11-06 12:35:00
6:55 AM,54.9,51.8,89,29.79,10.0,West,17.3,21.9,N/A,,Overcast,280,2013-11-06 12:55:00
7:15 AM,49.1,46.6,91,29.79,5.0,WNW,12.7,21.9,N/A,,Light Drizzle,290,2013-11-06 13:15:00
7:35 AM,46.2,43.9,92,29.82,3.0,NW,13.8,18.4,N/A,,Drizzle,310,2013-11-06 13:35:00
7:55 AM,45.0,42.8,92,29.85,2.5,WNW,13.8,17.3,N/A,,Drizzle,300,2013-11-06 13:55:00
8:15 AM,43.2,41.0,92,29.86,4.0,WNW,12.7,18.4,N/A,,Drizzle,290,2013-11-06 14:15:00
8:35 AM,42.6,40.1,91,29.88,4.0,NW,16.1,19.6,N/A,,Drizzle,310,2013-11-06 14:35:00
8:55 AM,41.9,39.4,91,29.88,4.0,NNW,12.7,18.4,0.02,Rain,Rain,330,2013-11-06 14:55:00
9:15 AM,41.4,38.8,91,29.88,7.0,NW,11.5,23.0,N/A,Rain,Rain,310,2013-11-06 15:15:00
9:35 AM,41.5,38.5,89,29.92,10.0,NW,13.8,21.9,N/A,,Overcast,310,2013-11-06 15:35:00
9:55 AM,41.4,38.3,89,29.92,10.0,NW,13.8,23.0,N/A,,Overcast,320,2013-11-06 15:55:00
10:15 AM,41.0,37.9,89,29.94,10.0,NW,16.1,20.7,N/A,,Overcast,310,2013-11-06 16:15:00
10:35 AM,41.0,37.4,87,29.95,10.0,NW,16.1,26.5,N/A,,Overcast,310,2013-11-06 16:35:00
10:55 AM,41.4,36.9,84,29.95,10.0,NW,16.1,24.2,N/A,,Overcast,310,2013-11-06 16:55:00
11:15 AM,41.9,36.9,82,29.96,10.0,NW,10.4,21.9,N/A,,Overcast,320,2013-11-06 17:15:00
11:35 AM,41.5,36.3,82,29.96,10.0,NW,12.7,21.9,N/A,,Overcast,310,2013-11-06 17:35:00
11:55 AM,41.7,36.1,81,29.98,10.0,WNW,15.0,24.2,N/A,,Overcast,300,2013-11-06 17:55:00
12:15 PM,43.5,36.3,76,29.98,10.0,NW,11.5,21.9,N/A,,Overcast,320,2013-11-06 18:15:00
12:35 PM,42.8,35.8,76,29.99,10.0,WNW,13.8,20.7,N/A,,Overcast,300,2013-11-06 18:35:00
12:55 PM,43.0,35.8,76,29.99,10.0,NW,12.7,18.4,N/A,,Overcast,310,2013-11-06 18:55:00
1:15 PM,43.2,35.2,74,30.00,10.0,NW,11.5,18.4,N/A,,Overcast,310,2013-11-06 19:15:00
1:35 PM,44.6,34.7,68,30.00,10.0,NNW,9.2,16.1,N/A,,Mostly Cloudy,330,2013-11-06 19:35:00
1:55 PM,46.2,35.2,66,30.01,10.0,NW,9.2,-,N/A,,Scattered Clouds,310,2013-11-06 19:55:00
2:15 PM,46.0,34.9,65,30.02,10.0,WNW,10.4,-,N/A,,Mostly Cloudy,300,2013-11-06 20:15:00
2:35 PM,46.8,34.5,62,30.03,10.0,WNW,11.5,17.3,N/A,,Mostly Cloudy,300,2013-11-06 20:35:00
2:55 PM,48.6,33.8,57,30.03,10.0,WNW,12.7,20.7,N/A,,Mostly Cloudy,290,2013-11-06 20:55:00
3:15 PM,47.8,33.1,57,30.04,10.0,WNW,15.0,20.7,N/A,,Mostly Cloudy,290,2013-11-06 21:15:00
3:35 PM,46.6,32.9,59,30.06,10.0,NW,13.8,19.6,N/A,,Scattered Clouds,310,2013-11-06 21:35:00
3:55 PM,46.8,32.0,57,30.07,10.0,WNW,12.7,21.9,N/A,,Mostly Cloudy,290,2013-11-06 21:55:00
4:15 PM,46.4,29.7,52,30.09,10.0,WNW,10.4,-,N/A,,Scattered Clouds,290,2013-11-06 22:15:00
4:35 PM,45.3,27.5,50,30.10,10.0,WNW,9.2,18.4,N/A,,Clear,290,2013-11-06 22:35:00
4:55 PM,44.2,25.9,49,30.11,10.0,WNW,11.5,17.3,N/A,,Clear,290,2013-11-06 22:55:00
5:15 PM,43.5,26.4,51,30.12,10.0,WNW,8.1,-,N/A,,Clear,290,2013-11-06 23:15:00
5:35 PM,43.2,25.3,49,30.13,10.0,WNW,9.2,16.1,N/A,,Clear,290,2013-11-06 23:35:00
5:55 PM,42.4,25.5,51,30.14,10.0,WNW,9.2,-,N/A,,Clear,300,2013-11-06 23:55:00
6:15 PM,41.7,26.1,54,30.15,10.0,WNW,8.1,-,N/A,,Clear,300,2013-11-07 00:15:00
6:35 PM,40.6,26.4,57,30.16,10.0,WNW,8.1,-,N/A,,Clear,290,2013-11-07 00:35:00
6:55 PM,40.6,26.2,57,30.16,10.0,WNW,8.1,-,N/A,,Clear,290,2013-11-07 00:55:00
7:15 PM,40.3,25.7,56,30.16,10.0,WNW,8.1,-,N/A,,Clear,290,2013-11-07 01:15:00
7:35 PM,39.7,25.7,57,30.16,10.0,WNW,10.4,-,N/A,,Clear,290,2013-11-07 01:35:00
7:55 PM,39.0,25.3,58,30.17,10.0,WNW,6.9,-,N/A,,Clear,300,2013-11-07 01:55:00
8:15 PM,38.8,25.5,59,30.17,10.0,WNW,9.2,-,N/A,,Clear,290,2013-11-07 02:15:00
8:35 PM,38.1,26.4,63,30.17,10.0,WNW,6.9,-,N/A,,Clear,290,2013-11-07 02:35:00
8:55 PM,37.9,26.4,63,30.19,10.0,WNW,4.6,-,N/A,,Clear,290,2013-11-07 02:55:00
9:15 PM,37.6,26.4,64,30.19,10.0,WNW,10.4,16.1,N/A,,Clear,290,2013-11-07 03:15:00
9:35 PM,37.4,27.1,66,30.20,10.0,WNW,6.9,-,N/A,,Clear,300,2013-11-07 03:35:00
9:55 PM,36.7,27.1,68,30.20,10.0,WNW,8.1,-,N/A,,Clear,290,2013-11-07 03:55:00
10:15 PM,36.3,27.0,69,30.21,10.0,WNW,10.4,-,N/A,,Clear,300,2013-11-07 04:15:00
10:35 PM,35.8,27.5,72,30.21,10.0,NW,6.9,-,N/A,,Clear,310,2013-11-07 04:35:00
10:55 PM,35.8,27.7,72,30.21,10.0,WNW,6.9,-,N/A,,Clear,300,2013-11-07 04:55:00
11:15 PM,35.8,27.7,72,30.21,10.0,WNW,6.9,-,N/A,,Clear,290,2013-11-07 05:15:00
11:35 PM,35.2,27.5,73,30.22,10.0,WNW,6.9,-,N/A,,Clear,290,2013-11-07 05:35:00
11:55 PM,35.1,27.5,74,30.22,10.0,WNW,6.9,-,N/A,,Clear,290,2013-11-07 05:55:00